IZ1VWE-3 Weather Reports


time (UTC)temp
F
wind
direction
speed
knots
gust
knots
rain 1hr
in
rain 24hr
in
rain mn
in
humidity
%
barometer
mb
20260506203053 62 0.0 0.0 0.00 0.00 0.00 59 1008.8
20260506201052 62 0.0 0.0 0.00 0.00 0.00 58 1008.8
20260506195052 62 0.0 0.0 0.00 0.00 0.00 58 1008.5
20260506193052 62 0.0 0.0 0.00 0.00 0.00 58 1008.3
20260506191051 62 0.0 0.0 0.00 0.00 0.00 59 1008.1
20260506185051 63 0.0 0.0 0.00 0.00 0.00 59 1007.7
20260506183051 62 0.0 0.0 0.00 0.00 0.00 59 1007.5
20260506181050 64 0.0 0.0 0.00 0.00 0.00 60 1007.3
20260506175050 64 0.0 0.0 0.00 0.00 0.00 60 1007.0
20260506173050 63 0.0 0.0 0.00 0.00 0.00 59 1006.9
20260506171050 62 0.0 0.0 0.00 0.00 0.00 60 1006.9
20260506165049 65 0.0 0.0 0.00 0.00 0.00 55 1006.7
20260506163049 66 0.0 0.0 0.00 0.00 0.00 53 1006.9
20260506161049 67 0.0 0.0 0.00 0.00 0.00 53 1006.9
20260506155048 65 0.0 0.0 0.00 0.00 0.00 57 1006.7
20260506153048 69 0.0 0.0 0.00 0.00 0.00 51 1006.8
20260506151048 71 0.0 0.0 0.00 0.00 0.00 51 1006.7
20260506145047 67 0.0 0.0 0.00 0.00 0.00 55 1006.7
20260506143047 69 0.0 0.0 0.00 0.00 0.00 53 1006.6
20260506141047 69 0.0 0.0 0.00 0.00 0.00 50 1006.7
20260506135046 70 0.0 0.0 0.00 0.00 0.00 50 1006.9
20260506133046 71 0.0 0.0 0.00 0.00 0.00 47 1006.9
20260506131046 71 0.0 0.0 0.00 0.00 0.00 51 1006.9
20260506125045 72 0.0 0.0 0.00 0.00 0.00 49 1006.9
20260506123045 72 0.0 0.0 0.00 0.00 0.00 51 1006.7
20260506121045 72 0.0 0.0 0.00 0.00 0.00 55 1006.5
20260506115044 72 0.0 0.0 0.00 0.00 0.00 55 1006.4
20260506113044 71 0.0 0.0 0.00 0.00 0.00 55 1006.6
20260506111044 68 0.0 0.0 0.00 0.00 0.00 60 1006.4
20260506105043 70 0.0 0.0 0.00 0.00 0.00 57 1006.5
20260506103043 71 0.0 0.0 0.00 0.00 0.00 56 1006.5
20260506101043 73 0.0 0.0 0.00 0.00 0.00 55 1006.5
20260506095043 70 0.0 0.0 0.00 0.00 0.00 58 1006.5
20260506093042 72 0.0 0.0 0.00 0.00 0.00 60 1006.4
20260506091042 66 0.0 0.0 0.00 0.00 0.00 65 1004.0
20260506085042 67 0.0 0.0 0.00 0.00 0.00 66 1001.2
20260506083041 65 0.0 0.0 0.00 0.00 0.00 70 1010.5
20260506081041 68 0.0 0.0 0.00 0.00 0.00 86 1009.2
20260506073040 56 0.0 0.0 0.00 0.00 0.00 99
20260506071040 56 0.0 0.0 0.00 0.00 0.00 99
20260506061036 56 0.0 0.0 0.00 0.00 0.00 99 1004.2
20260506051035 55 0.0 0.0 0.00 0.00 0.00 99 1004.6
20260506045035 53 0.0 0.0 0.00 0.00 0.00 99 1004.5
20260506043035 52 0.0 0.0 0.00 0.00 0.00 99 1004.8
20260506041034 53 0.0 0.0 0.00 0.00 0.00 99 1005.3
20260506035034 54 0.0 0.0 0.00 0.00 0.00 88 1005.6
20260506033034 52 0.0 0.0 0.00 0.00 0.00 88 1005.3
20260506031033 50 0.0 0.0 0.00 0.00 0.00 83 1005.3
20260506025033 50 0.0 0.0 0.00 0.00 0.00 86 1005.9
20260506023033 51 0.0 0.0 0.00 0.00 0.00 86 1006.5
20260506021033 50 0.0 0.0 0.00 0.00 0.00 87 1006.6
20260506015032 51 0.0 0.0 0.00 0.00 0.00 82 1007.1
20260506013032 55 0.0 0.0 0.00 0.00 0.00 80 1006.8
20260506011032 56 0.0 0.0 0.00 0.00 0.00 81 1007.0
20260506005031 57 0.0 0.0 0.00 0.00 0.00 76 1007.1
20260506003031 57 0.0 0.0 0.00 0.00 0.00 77 1007.4
20260506001033 59 0.0 0.0 0.00 0.00 0.00 73 1007.3
20260505235030 62 0.0 0.0 0.00 0.00 0.00 69 1007.6
20260505233030 62 0.0 0.0 0.00 0.00 0.00 69 1008.2
20260505231030 61 0.0 0.0 0.00 0.00 0.00 69 1008.5
20260505225029 61 0.0 0.0 0.00 0.00 0.00 68 1008.6
20260505223029 60 0.0 0.0 0.00 0.00 0.00 70 1008.8
20260505221029 61 0.0 0.0 0.00 0.00 0.00 68 1009.0
20260505215028 63 0.0 0.0 0.00 0.00 0.00 66 1009.0
20260505213028 63 0.0 0.0 0.00 0.00 0.00 64 1009.2
20260505211028 63 0.0 0.0 0.00 0.00 0.00 64 1009.3
20260505205028 63 0.0 0.0 0.00 0.00 0.00 65 1009.5